weather.gov     
National Weather Service

Terminal Aerodrome Forecast
NWS Homepage
This page is being discontinued on March 12, 2014.
The same data is available at this site. Please update your bookmarks.
Thank you, and we apologize for the inconvenience.
Please send an email to SR-SRH.Webmaster@noaa.gov with any concerns.


Current Version
Previous Version:    01  02  03  04  05  06  07  08  09  10  11  12  13  14  15  16  17  18  19  20  21  22  23  24  25  26  27  28  29  30  
   31  
[Printable]
485
FTUS45 KBOI 252331
TAFBNO
TAF
KBNO 252331Z 2600/2624 18020G30KT P6SM SCT080
     FM260200 19015G25KT P6SM VCSH OVC050
     FM260500 23012G22KT P6SM -SHRA BKN040 OVC070
     FM261200 24008KT P6SM SCT050 BKN080
     FM261600 24012G22KT P6SM SCT080 BKN120=




485
FTUS45 KBOI 252331
TAFBNO
TAF
KBNO 252331Z 2600/2624 18020G30KT P6SM SCT080
     FM260200 19015G25KT P6SM VCSH OVC050
     FM260500 23012G22KT P6SM -SHRA BKN040 OVC070
     FM261200 24008KT P6SM SCT050 BKN080
     FM261600 24012G22KT P6SM SCT080 BKN120=


U.S. Dept. of Commerce
NOAA National Weather Service
1325 East West Highway
Silver Spring, MD 20910
E-mail: w-nws.webmaster@noaa.gov
Page last modified: May 16, 2007
NATIONAL WEATHER SERVICE: for Safety, for Work, for Fun - FOR LIFE